Location: Brest
(52.1000°N, 23.7000°E)
Time: 03:37:23
(UTC+02:00)

ISS - Visible Passes

Search period start: 24 November 2017 00:00
Search period end: 04 December 2017 00:00
Orbit: 402 x 407 km, 51.6° (Epoch: 24 November)

Date Brightness Start Highest point End Pass type
(mag) Time Alt. Az. Time Alt. Az. Time Alt. Az.
28 Nov -0.7 19:17:41 10° SSW 19:17:50 11° SSW 19:17:50 11° SSW visible
29 Nov -1.9 18:25:54 10° SSW 18:27:45 19° SSE 18:27:45 19° SSE visible
30 Nov -1.5 17:34:36 10° S 17:36:15 13° SE 17:37:36 11° ESE visible
30 Nov -1.4 19:08:58 10° SW 19:10:15 21° SW 19:10:15 21° SW visible
01 Dec -2.8 18:16:51 10° SW 18:19:50 33° SSE 18:20:01 33° SE visible
02 Dec -2.1 17:24:57 10° SSW 17:27:36 23° SSE 17:29:44 13° E visible
02 Dec -2.1 19:00:26 10° WSW 19:02:23 32° WSW 19:02:23 32° WSW visible
03 Dec -3.4 18:08:08 10° WSW 18:11:20 51° SSE 18:12:04 41° ESE visible
03 Dec -0.3 19:44:26 10° W 19:44:42 12° W 19:44:42 12° W visible
